[[{"header":{"parameterUnit":"m.s-1","parameterCategory":1,"la1":30.2991,"la2":30.254,"lo1":-89.0895,"lo2":-89.0444,"dy":0.0017,"dx":0.0017,"nx":28,"ny":28,"refTime":"2024-06-30T03:00:00:Z","depth":0,"parameterNumber":2,"parameterNumberName":"U-component_of_WINDS"},"data":[0,0,0,0,0,0,0,0,0,0,0,0,0,0,0,0,0,0,0,0,0,0,0,0,0,0,0,0,0,0,0,0,0,0,0,0,0,0,0,0,0,0,0,0,0,0,0,0,0,0,0,0,0,0,0,0,0,0,0.111,0.1112,0,0.133,0.1333,0.1335,0.1371,0.1369,0.1367,0.1365,0.1595,0.1602,0.161,0,0,0,0,0,0,0,0,0,0,0,0,0,0.0722,0.0729,0.1109,0.1112,0.1115,0.133,0.1333,0.1336,0.1371,0.1369,0.1367,0.1365,0.1592,0.1601,0.1611,0,0,0,0,0,0,0,0,0,0,0,0,0,0.0911,0.0731,0.1109,0.1159,0.1165,0.1329,0.1333,0.1337,0.1372,0.1369,0.1366,0.1364,0.1589,0.16,0.1612,0.1743,0,0,0.1648,0.1653,0,0,0,0,0,0,0,0,0.09,0.0925,0.1149,0.1155,0.1163,0.132,0.128,0.1473,0.1373,0.1294,0.1365,0.1362,0.1506,0.1524,0.1572,0.1754,0.1764,0.1649,0.1657,0.1662,0.1665,0,0,0,0,0,0,0,0.0887,0.0916,0.1197,0.1152,0.1161,0.1171,0.1194,0.1317,0.1413,0.13,0.1303,0.1329,0.1509,0.1561,0.1578,0.1767,0.1649,0.166,0.1667,0.1672,0.2066,0.2069,0,0,0,0,0,0,0.0865,0.0905,0.119,0.1203,0.1022,0.118,0.1206,0.1273,0.1412,0.143,0.1331,0.133,0.1542,0.1564,0.1586,0.1747,0.1662,0.1673,0.1679,0.2063,0.2067,0.207,0,0,0,0,0,0,0.0856,0.089,0.1181,0.1055,0.1093,0.119,0.1264,0.1279,0.133,0.1435,0.1453,0.1366,0.154,0.1569,0.1703,0.1756,0.1678,0.1689,0.2059,0.2064,0.2068,0.2071,0,0,0,0,0,0,0.0845,0.0886,0.0936,0.1056,0.1099,0.1294,0.1267,0.1285,0.135,0.135,0.1472,0.149,0.154,0.1685,0.1715,0.1771,0.1698,0.2054,0.2061,0.2067,0.2067,0.2076,0.2083,0,0,0,0,0,0.0831,0.0929,0.0939,0.0973,0.1164,0.1297,0.1322,0.1377,0.1354,0.1405,0.1473,0.1486,0.1745,0.1699,0.1732,0.1792,0.2051,0.2059,0.2066,0.2063,0.2074,0.2083,0,0,0,0,0,0,0.0815,0.0946,0.0958,0.1098,0.1186,0.1302,0.1369,0.1387,0.1484,0.148,0.1545,0.1573,0.1703,0.1762,0.1707,0.1926,0.1897,0.1911,0.1883,0.1894,0.1902,0.1885,0.1708,0,0,0,0,0,0.0828,0.0923,0.1033,0.1146,0.119,0.1271,0.1331,0.1366,0.146,0.1498,0.1575,0.1667,0.1769,0.1835,0.1935,0.2076,0.2103,0.2134,0.2142,0.2148,0.216,0.2238,0.2252,0.2095,0.2095,0.2095,0,0,0.0855,0.0938,0.0995,0.1145,0.1217,0.1315,0.1303,0.1408,0.1481,0.1514,0.1644,0.1705,0.1811,0.1949,0.2013,0.2001,0.2209,0.2158,0.2162,0.2171,0.2247,0.2262,0.2275,0.21,0.2099,0.2099,0,0,0.0955,0.1028,0.1129,0.1201,0.131,0.1364,0.1388,0.1503,0.1543,0.1675,0.1701,0.1791,0.1965,0.204,0.21,0.2227,0.2243,0.2258,0.2301,0.2376,0.2388,0.24,0.2444,0.2459,0.227,0.227,0.227,0,0.0975,0.1123,0.1179,0.1283,0.1348,0.1381,0.1484,0.1552,0.1688,0.1733,0.1718,0.1936,0.2011,0.2165,0.2196,0.2245,0.2274,0.2244,0.2382,0.2394,0.2405,0.2448,0.2464,0.2271,0.2271,0.2271,0.227,0,0.1142,0.1245,0.1314,0.1443,0.1516,0.1619,0.1691,0.1758,0.1787,0.1842,0.1976,0.2066,0.2184,0.2223,0.2253,0.2383,0.2371,0.2368,0.234,0.242,0.2461,0.2478,0.2272,0.2272,0.2272,0.2271,0,0,0.1238,0.1396,0.142,0.1479,0.1601,0.1682,0.1786,0.19,0.1956,0.205,0.2138,0.2285,0.2282,0.2351,0.239,0.2456,0.2549,0.2445,0.2448,0.2459,0.2696,0.2696,0.2714,0.256,0.2563,0.2566,0.2686,0,0.1351,0.1536,0.159,0.1747,0.1842,0.1875,0.1966,0.2051,0.2106,0.2195,0.2256,0.2358,0.2348,0.2389,0.2456,0.2523,0.2597,0.2515,0.2643,0.2647,0.2614,0.2736,0.2737,0.2846,0.2703,0.2705,0.2708,0,0.1507,0.1601,0.1767,0.1876,0.1918,0.1999,0.2107,0.2192,0.2289,0.2325,0.2401,0.2433,0.2544,0.251,0.2663,0.2606,0.2662,0.2702,0.2708,0.2721,0.2681,0.2751,0.2882,0.2897,0.2734,0.2732,0.273,0,0.1558,0.1727,0.1847,0.1897,0.2028,0.2083,0.2141,0.2235,0.23,0.2395,0.2438,0.2545,0.2604,0.2686,0.2747,0.2717,0.2894,0.2866,0.2926,0.2924,0.2961,0.2958,0.3101,0.2999,0.2999,0.2998,0.2998,0,0.1678,0.1777,0.1872,0.1946,0.2059,0.212,0.223,0.2289,0.2372,0.2459,0.2495,0.2575,0.2651,0.2742,0.279,0.2908,0.2935,0.2966,0.2978,0.2962,0.2958,0.2999,0.2992,0.3003,0.3002,0.3001,0.3,0,0.1753,0.182,0.1954,0.2066,0.2097,0.2175,0.2272,0.2345,0.2401,0.251,0.2539,0.2627,0.2735,0.2804,0.2943,0.2975,0.3104,0.3114,0.3071,0.3076,0.3132,0.3125,0.3305,0.3332,0.3213,0.3214,0.3215,0,0.1824,0.1901,0.2022,0.2082,0.2139,0.2235,0.2301,0.2365,0.2432,0.2548,0.2607,0.2718,0.2809,0.2981,0.3058,0.3164,0.3175,0.3232,0.3192,0.3173,0.3175,0.3168,0.3176,0.3237,0.3238,0.3239,0.324,0,0.1942,0.1972,0.2065,0.217,0.2247,0.2333,0.2419,0.2467,0.2545,0.2619,0.2729,0.28,0.2941,0.305,0.3162,0.3222,0.3244,0.3252,0.3271,0.3256,0.3226,0.3241,0.3087,0.3247,0.3247,0.3246,0.3246,0.3245,0.2017,0.2087,0.2182,0.2284,0.2355,0.2435,0.2509,0.2573,0.2666,0.2785,0.2817,0.2932,0.3028,0.3181,0.3243,0.3334,0.3327,0.3355,0.3362,0.3367,0.3367,0.3213,0.3355,0.3355,0.3355,0.3355,0.3355,0,0.2136,0.2198,0.2292,0.241,0.2491,0.2504,0.26,0.2667,0.2767,0.2854,0.2943,0.3069,0.3175,0.326,0.3369,0.3426,0.3438,0.3452,0.3448,0.3461,0.3369,0.334,0.344,0.344,0.344,0.344,0.344,0.3439,0.2207,0.2325,0.2365,0.2519,0.2582,0.2694,0.2747,0.2821,0.289,0.3029,0.3117,0.3171,0.3257,0.3372,0.347,0.3492,0.353,0.3541,0.3565,0.3477,0.3467,0.3458,0.3432,0.3549,0.3549,0.365,0.365,0.3651]},{"header":{"parameterUnit":"m.s-1","parameterCategory":1,"la1":30.2991,"la2":30.254,"lo1":-89.0895,"lo2":-89.0444,"dy":0.0017,"dx":0.0017,"nx":28,"ny":28,"refTime":"2024-06-30T03:00:00:Z","depth":0,"parameterNumber":3,"parameterNumberName":"V-component_of_WINDS"},"data":[0,0,0,0,0,0,0,0,0,0,0,0,0,0,0,0,0,0,0,0,0,0,0,0,0,0,0,0,0,0,0,0,0,0,0,0,0,0,0,0,0,0,0,0,0,0,0,0,0,0,0,0,0,0,0,0,0,0,2.379,2.3793,0,2.4027,2.4029,2.4032,2.4,2.3996,2.3992,2.3988,2.4235,2.4245,2.4255,0,0,0,0,0,0,0,0,0,0,0,0,0,2.3311,2.332,2.379,2.3793,2.3796,2.4026,2.403,2.4033,2.4,2.3995,2.3991,2.3986,2.4232,2.4244,2.4256,0,0,0,0,0,0,0,0,0,0,0,0,0,2.353,2.3322,2.3789,2.3807,2.3811,2.4026,2.403,2.4034,2.4001,2.3995,2.3989,2.3984,2.4228,2.4243,2.4258,2.4471,0,0,2.4305,2.4311,0,0,0,0,0,0,0,0,2.3518,2.3548,2.3802,2.3806,2.3811,2.3977,2.3951,2.418,2.4003,2.3929,2.3988,2.3981,2.4154,2.4175,2.4233,2.4483,2.4493,2.4306,2.4315,2.4322,2.4326,0,0,0,0,0,0,0,2.3503,2.3538,2.3884,2.3805,2.3811,2.3804,2.3828,2.3994,2.4072,2.3935,2.3933,2.3962,2.4156,2.4218,2.4239,2.4497,2.4306,2.4319,2.4329,2.4335,2.4926,2.4932,0,0,0,0,0,0,2.3482,2.3525,2.3876,2.3891,2.3647,2.3817,2.3845,2.393,2.407,2.4086,2.3966,2.3959,2.4195,2.4221,2.4247,2.4501,2.4322,2.4336,2.4345,2.492,2.4928,2.4935,0,0,0,0,0,0,2.3472,2.3514,2.3867,2.3708,2.3752,2.3832,2.3928,2.3938,2.4,2.4094,2.4108,2.4016,2.4191,2.4225,2.4414,2.451,2.4343,2.4357,2.4912,2.4922,2.4931,2.5014,0,0,0,0,0,0,2.3459,2.3511,2.3593,2.371,2.376,2.403,2.3934,2.3947,2.4026,2.4019,2.4144,2.4159,2.4189,2.4391,2.4429,2.4528,2.4369,2.4904,2.4917,2.4928,2.5003,2.5025,2.5045,0,0,0,0,0,2.3442,2.3609,2.3597,2.364,2.3865,2.4035,2.4064,2.4095,2.4034,2.4117,2.4176,2.4155,2.4493,2.441,2.4453,2.4558,2.4898,2.4913,2.4927,2.4994,2.5021,2.5044,0,0,0,0,0,0,2.3505,2.3625,2.3613,2.3823,2.3919,2.4029,2.4135,2.4124,2.424,2.4229,2.4262,2.4291,2.448,2.4538,2.4444,2.4768,2.4687,2.4711,2.4723,2.475,2.477,2.4752,2.4382,0,0,0,0,0,2.3543,2.367,2.3769,2.3945,2.3993,2.4056,2.4131,2.4146,2.4247,2.4288,2.4361,2.4461,2.4588,2.4673,2.4797,2.5011,2.5036,2.5104,2.5125,2.5141,2.5161,2.5273,2.5303,2.4983,2.4982,2.4982,0,0,2.3624,2.3705,2.3784,2.396,2.4035,2.4166,2.409,2.4234,2.433,2.431,2.449,2.4547,2.4661,2.4861,2.4954,2.4916,2.5255,2.516,2.5172,2.5183,2.5291,2.5322,2.5349,2.4992,2.4991,2.4989,0,0,2.3837,2.3912,2.4064,2.414,2.4254,2.4294,2.433,2.4442,2.4478,2.4659,2.4644,2.476,2.4982,2.5061,2.5131,2.5367,2.535,2.5406,2.5514,2.5623,2.5648,2.5671,2.5751,2.578,2.5426,2.5426,2.5426,0,2.3923,2.4119,2.4145,2.4288,2.4363,2.4347,2.45,2.4574,2.4723,2.4776,2.4731,2.5003,2.5079,2.5295,2.5352,2.5411,2.5451,2.5392,2.5643,2.5665,2.5687,2.5764,2.5794,2.5432,2.5431,2.5431,2.543,0,2.4217,2.4352,2.4462,2.4602,2.469,2.4838,2.4885,2.4972,2.4977,2.5021,2.5203,2.5292,2.543,2.5483,2.5492,2.57,2.5672,2.5635,2.5553,2.5723,2.5795,2.5825,2.544,2.5438,2.5436,2.5435,0,0,2.448,2.4628,2.4667,2.4728,2.485,2.4956,2.5101,2.5233,2.5304,2.5408,2.5528,2.5713,2.5677,2.5755,2.5772,2.5868,2.6044,2.5819,2.5822,2.5854,2.6273,2.6298,2.6332,2.6033,2.6039,2.6044,2.6262,0,2.4701,2.4956,2.4981,2.5209,2.5332,2.5316,2.5441,2.5529,2.5573,2.5684,2.5732,2.5861,2.5806,2.5852,2.5947,2.6002,2.6128,2.5987,2.6144,2.615,2.6114,2.6371,2.6399,2.6601,2.6291,2.6296,2.6299,0,2.4996,2.5101,2.534,2.5439,2.5492,2.5605,2.5725,2.5832,2.593,2.5954,2.6039,2.6041,2.6189,2.6102,2.6304,2.6207,2.6273,2.6309,2.6318,2.6332,2.6234,2.6389,2.6667,2.6695,2.6345,2.6341,2.6338,0,2.5158,2.5361,2.5529,2.5582,2.5703,2.5781,2.5836,2.5928,2.6004,2.6109,2.6158,2.6281,2.6348,2.6442,2.6476,2.641,2.6675,2.6592,2.6697,2.6696,2.6754,2.6749,2.7042,2.68,2.6799,2.6799,2.6798,0,2.5402,2.5548,2.5602,2.5705,2.5867,2.5893,2.6053,2.6103,2.6184,2.6295,2.629,2.6395,2.6435,2.6546,2.6574,2.6734,2.6766,2.6788,2.6794,2.6788,2.6784,2.683,2.6816,2.6807,2.6805,2.6804,2.6802,0,2.5611,2.5654,2.5834,2.5932,2.5959,2.6074,2.6157,2.6256,2.6296,2.6436,2.6471,2.6535,2.6664,2.6707,2.6866,2.6884,2.7069,2.7065,2.7036,2.7036,2.7137,2.7126,2.7469,2.7513,2.7244,2.7246,2.7248,0,2.5763,2.5874,2.5981,2.6054,2.611,2.6229,2.6304,2.6334,2.6413,2.6529,2.6613,2.6741,2.6844,2.7052,2.7112,2.7231,2.7227,2.7338,2.7245,2.7233,2.7224,2.7216,2.7225,2.7356,2.7359,2.7361,2.7363,0,2.6026,2.604,2.6149,2.6264,2.6354,2.6447,2.6537,2.6597,2.6639,2.6728,2.6858,2.6938,2.7096,2.7222,2.7343,2.7398,2.7387,2.7391,2.7421,2.7415,2.7392,2.7402,2.708,2.7383,2.7381,2.738,2.7379,2.7378,2.6209,2.6305,2.6393,2.6514,2.6583,2.6665,2.676,2.681,2.6919,2.7048,2.7059,2.7199,2.7289,2.7449,2.751,2.7619,2.7587,2.7632,2.7643,2.7653,2.7658,2.7376,2.7642,2.7641,2.7641,2.764,2.764,0,2.6469,2.6524,2.6634,2.6757,2.685,2.6829,2.6925,2.7005,2.7127,2.7212,2.7312,2.7459,2.7579,2.7647,2.7766,2.784,2.7838,2.787,2.7864,2.7876,2.7682,2.7642,2.787,2.787,2.787,2.787,2.787,2.787,2.6615,2.6774,2.6798,2.6989,2.7044,2.7178,2.7234,2.7309,2.7376,2.754,2.7638,2.768,2.7757,2.7881,2.7989,2.8006,2.8049,2.8084,2.8097,2.7914,2.7891,2.7868,2.7831,2.8094,2.8095,2.8282,2.8284,2.8285]}]]